Location: Stamford Observatory
(41.1241°N, 73.5498°W)
Time: 01:47:43
(UTC-04:00)

IRS-P3 - Visible Passes

Search period start: 27 June 2016 00:00
Search period end: 07 July 2016 00:00
Orbit: 814 x 819 km, 98.7° (Epoch: 26 June)

Date Brightness Start Highest point End Pass type
(mag) Time Alt. Az. Time Alt. Az. Time Alt. Az.
27 Jun 5.0 01:58:37 10° NNE 02:03:39 40° E 02:05:05 34° SE visible
27 Jun 5.4 03:39:02 10° N 03:43:26 27° WNW 03:46:22 17° WSW visible
28 Jun 5.6 01:37:25 10° NE 01:41:51 26° E 01:43:07 23° ESE visible
28 Jun 4.8 03:16:59 10° N 03:21:58 40° WNW 03:24:25 26° WSW visible
29 Jun 6.1 01:16:40 10° NE 01:19:58 16° E 01:21:10 15° ESE visible
29 Jun 4.3 02:55:06 10° N 03:00:24 63° WNW 03:02:28 36° SW visible
30 Jun 4.1 02:33:24 10° NNE 02:38:47 84° ESE 02:40:31 45° S visible
30 Jun 6.2 04:15:27 10° NNW 04:18:03 14° WNW 04:20:39 10° W visible
01 Jul 4.5 02:11:50 10° NNE 02:17:05 53° E 02:18:33 41° SSE visible
01 Jul 5.7 03:52:47 10° NNW 03:56:41 21° WNW 03:59:50 13° WSW visible
02 Jul 5.2 01:50:29 10° NNE 01:55:20 34° E 01:56:35 30° SE visible
02 Jul 5.2 03:30:35 10° N 03:35:15 31° WNW 03:37:53 20° WSW visible
03 Jul 5.8 01:29:25 10° NE 01:33:30 22° E 01:34:38 20° ESE visible
03 Jul 4.6 03:08:36 10° N 03:13:44 48° WNW 03:15:55 31° SW visible
04 Jul 6.3 01:09:00 10° ENE 01:11:35 13° E 01:12:40 13° ESE visible
04 Jul 4.1 02:46:47 10° N 02:52:09 75° WNW 02:53:58 42° SSW visible
04 Jul 6.4 04:30:20 10° NW 04:31:13 10° WNW 04:32:06 10° WNW visible
05 Jul 4.2 02:25:08 10° NNE 02:30:30 71° ESE 02:32:00 47° S visible
05 Jul 6.0 04:06:42 10° NNW 04:09:54 16° WNW 04:13:05 10° W visible
06 Jul 4.8 02:03:39 10° NNE 02:08:47 45° E 02:10:02 38° SE visible
06 Jul 5.6 03:44:16 10° NNW 03:48:30 24° WNW 03:51:19 16° WSW visible
